Showing default

COSMOS 651, 7291

Orbit data source: Space-Track

COSMOS 651, 7291 is a payload satellite owned by VMF (CIS) in LEO that was launched on Wed, 15 May 1974 UTC via a TSIKLON-2 launch vehicle from the Tyuratam Missile And Space Complex (TTMTR). Payload-class satellites include a variety of spacecraft equipped with specific instruments for various scientific and technological missions. These include communications satellites like Starlink; space stations such as the ISS; scientific satellites like the Hubble; Earth observation satellites from companies like Planet Labs, Umbra, and HawkEye 360; GPS; miniature CubeSats for education and research; and military/defense satellites.

Loading next visibility...
Identifier
7291, 1974-029A
Orbit
LEO
Country
Flag of CISCIS
Related business
Manufacturer
Kometa
Mission
Spacecraft
Bus & Motor
US-A REACTOR, Unknown motor
Mass
3,800 kg wet, 1,150 kg dry
Launch date (UTC)
1974-05-15 (52 years ago)
Launch vehicle
TSIKLON-2
Launch site
Tyuratam Missile And Space Complex (TTMTR)
Object type
Payload
Rocket body
Debris
Shape & HBR
Unknown
Radar Cross Section
Large (>1 m²)

Expand to show TLE details & history
Last TLE update: 2 days ago

TLE from 2 days ago
0 COSMOS 651
1  7291U 74029A   26171.40687316 -.00000069  00000-0  16726-4 0  9995
2  7291  64.9722 305.3073 0025500  38.7645 321.5243 13.93094155651166
Epoch: 2026-06-20T09:45Z
TLE epoch observation values (Epoch: 2026-06-20T09:45:53.841Z)
Latitude
0.00001°
Longitude
-109.78898°
Altitude
905.194 km
Speed
7.407 km/s
True Right ascension
20h 21m 13s
True Declination
0° 00' 00"
Sunlit
Object was in full shadow at epoch
Visualization orbit readout
Latitude
Unknown
Longitude
Unknown
Altitude
Unknown
Speed
Unknown
Apparent Right ascension
Unknown
Apparent Declination
Unknown
Sunlit
N/A
Visualization observer readout
Local Sidereal Time
23:07:56
Azimuth
Unknown
Elevation
Unknown
Doppler factor
Unknown
Orbital elements
Apogee altitude
935.016 km
Perigee altitude
897.814 km
Semi-major axis
7,294.552 km
Eccentricity
0.00255
Inclination
64.9722°
RAAN
305.3073°
Arg. of periapsis
38.7645°
True anomaly
321.34204°
Mean anomaly
321.5243°
Eccentric anomaly
321.43321°
Mean motion
3.48374 °/min
Orbital period
103.34 mins
BSTAR
0.000016726
Loading maneuver chart data...
Computing Atmospheric mass density...
Loading historical data...
Loading historical data...
Loading historical data...
Loading historical data...
Loading historical data...
Loading historical data...
Loading historical data...

Documentation

Showing up to 5 results
|